Notices

What's New in latest Release from April 7th, 2021:

- Updated Glossary, including Speed of Maximum Gust, and Total Hourly Precipitation

- Updated national and regional climate services offices contacts and prices information

- Addition of station inventory lists for 1981-2010, 1971-2000, and 1961-1990 Normals.

If you haven't already, please take our survey and provide feedback about our website: https://eccc.sondage-survey.ca/f/LanguageSelection.aspx?s=442ca660-fcf1-47c0-95a9-59707d6fd709

Hourly Data Report for October 11, 2020

MUSKOKA
ONTARIO
Current Station Operator: NAVCAN

44°58'29.000" N
79°18'12.000" W
281.90 m
6115529
71532
YQA

Download Data

Hourly Data (October 2020)
Hourly Data Report for October 11, 2020
TIME
LST
Temp Definition
°C
Dew Point Definition
°C
Rel Hum Definition
%
Precip. Amount Definition
mm

Wind Dir Definition
10's deg

Wind Spd Definition
km/h
Visibility Definition
km
Stn Press Definition
kPa
Hmdx Definition


Wind Chill Definition


Weather Definition


00:00 3.8 1.2 83 0.0 35 8 16.1 98.54     LegendNANA
01:00 3.5 0.7 82 0.0 35 5 16.1 98.61     LegendNANA
02:00 1.5 0.5 93 0.0 34 8 16.1 98.68     LegendNANA
03:00 0.4 0.0 97 0.0   0 16.1 98.72     LegendNANA
04:00 -0.4 -0.7 98 0.0   0 16.1 98.75     LegendNANA
05:00 -1.0 -1.6 96 0.0 LegendMM 4 16.1 98.82   -2 LegendNANA
06:00 -1.0 -1.4 97 0.0 LegendMM 4 16.1 98.89   -2 LegendNANA
07:00 -1.0 -1.8 95 0.0 35 5 16.1 98.96   -3 LegendNANA
08:00 2.5 -0.4 81 0.0 LegendMM 5 16.1 99.03     LegendNANA
09:00 4.6 -1.0 67 0.0 10 13 16.1 99.09     LegendNANA
10:00 6.5 -2.0 55 0.0 9 13 16.1 99.07     LegendNANA
11:00 8.3 -1.5 50 0.0 11 11 16.1 99.06     LegendNANA
12:00 10.1 -0.6 47 0.0 12 15 16.1 98.98     LegendNANA
13:00 11.5 -0.5 43 0.0 LegendMM 5 16.1 98.95     LegendNANA
14:00 11.9 -0.8 41 0.0 11 8 16.1 98.87     LegendNANA
15:00 12.8 -1.2 38 0.0 8 9 16.1 98.82     LegendNANA
16:00 12.3 -3.0 34 0.0 10 9 16.1 98.82     LegendNANA
17:00 11.3 -3.2 36 0.0 11 11 16.1 98.82     LegendNANA
18:00 6.2 -0.9 60 0.0 11 4 16.1 98.83     LegendNANA
19:00 3.2 -0.2 78 0.0 10 8 16.1 98.84     LegendNANA
20:00 2.7 -1.1 76 0.0 11 5 16.1 98.87     LegendNANA
21:00 3.3 -1.2 72 0.0 LegendMM 4 16.1 98.87     LegendNANA
22:00 4.2 -1.2 68 0.0 9 8 16.1 98.82     LegendNANA
23:00 4.4 -1.4 66 0.0 11 13 16.1 98.77     LegendNANA

Notes on Data Quality.

Legend

  • E = Estimated
  • M = Missing
  • NA = Not Available*
  • [empty] = Indicates an unobserved value
Date modified: